Regional Weather Roundup
Issued by NWS

Home | Current Version | Previous Version | Text Only | Print | Product List | Glossary On
Versions: 1 2 3 4 5 6 7 8 9 10 11 12 13 14 15 16 17 18 19 20 21 22 23 24 25 26 27 28 29 30 31 32 33 34 35 36 37 38 39 40 41 42 43 44 45 46 47 48 49 50
000
ASUS45 KREV 221110
RWRNV
NEVADA REGIONAL WEATHER ROUNDUP
NATIONAL WEATHER SERVICE RENO NV
400 AM PDT SUN OCT 22 2017

NOTE: "FAIR" INDICATES FEW OR NO CLOUDS BELOW 12,000 FEET WITH NO
SIGNIFICANT WEATHER AND/OR OBSTRUCTIONS TO VISIBILITY.

NVZ001-003-004-221200-
WESTERN NEVADA

CITY           SKY/WX    TMP DP  RH WIND       PRES   REMARKS
RENO           CLEAR     40  36  86 CALM      30.36S
CARSON CITY    FAIR      36  32  87 NW3       30.38R
MINDEN         FAIR      28  28 100 E7        30.38S
FALLON         CLEAR     34  25  69 S6        30.33S
LOVELOCK       PTCLDY    28  19  69 CALM      30.33S
HAWTHORNE      CLEAR     41  28  60 SW5       30.35R
$$

NVZ002-CAZ072-073-221200-
NORTHERN AND CENTRAL SIERRA

CITY           SKY/WX    TMP DP  RH WIND       PRES   REMARKS
S. LAKE TAHOE  CLEAR     28  26  92 S6        30.43S
TRUCKEE        FOG       28  28 100 CALM      30.43F VSB<1/4
SQUAW VLY 8000 NOT AVBL
SUSANVILLE     CLEAR     36  36 100 NE5       30.34F
BLUE CANYON    CLEAR     48  38  68 CALM      30.41S
MAMMOTH LAKES  FAIR      29  25  84 NW3       30.46S
BRIDGEPORT     FAIR      25  21  85 CALM      30.44R
$$

NVZ030-031-036-221200-
NORTHERN NEVADA

CITY           SKY/WX    TMP DP  RH WIND       PRES   REMARKS
ELKO           PTCLDY    31  25  78 N3        30.34R
WINNEMUCCA     PTCLDY    35  29  78 CALM      30.32R
WENDOVER       PTCLDY    38  21  50 N3        30.33S
$$

NVZ035-037-221200-
CENTRAL NEVADA

CITY           SKY/WX    TMP DP  RH WIND       PRES   REMARKS
ELY            CLEAR     30  17  58 S9        30.41R
EUREKA           N/A     33  26  75 S6        30.38R
$$

NVZ013-014-221200-
SOUTH CENTRAL NEVADA

CITY           SKY/WX    TMP DP  RH WIND       PRES   REMARKS
TONOPAH        PTCLDY    38  25  59 N10       30.39S
$$

NVZ017-020-022-221200-
SOUTHERN NEVADA

CITY           SKY/WX    TMP DP  RH WIND       PRES   REMARKS
LAS VEGAS      CLEAR     58  19  22 W7        30.25F
N. LAS VEGAS   CLEAR     57  20  23 W5        30.25F
NELLIS AFB     NOT AVBL
HENDERSON      CLEAR     53  16  23 S9        30.27F
MERCURY        CLEAR     50  15  24 N3        30.29S
$$



USA.gov is the U.S. government's official web portal to all federal, state and local government web resources and services.